Location: Branche des Alpilles
(43.6087°N, 4.6976°E)
Time: 05:52:08
(UTC+00:00)

ERS-2 - Pass Details

Date: 30 November 2020
Orbit: 492 x 498 km, 98.6° (Epoch: 27 January)

Event Time Altitude Azimuth Distance (km) Brightness Sun altitude
Exits shadow 16:56:44 - 36° (NE) 1,844 4.5 -9.1°
Reaches altitude 10° 16:57:07 10° 39° (NE) 1,710 4.3 -9.2°
Maximum altitude 17:00:15 26° 97° (E) 1,013 3.2 -9.7°
Drops below altitude 10° 17:03:21 10° 156° (SSE) 1,697 4.8 -10.2°
Sets 17:05:39 0° 169° (S) 2,575 5.9 -10.6°
